Regional Weather Roundup
Issued by NWS

Home | Current Version | Previous Version | Text Only | Print | Product List | Glossary Off
Versions: 1 2 3 4 5 6 7 8 9 10 11 12 13 14 15 16 17 18 19 20 21 22 23 24 25 26 27 28 29 30 31 32 33 34 35 36 37 38 39 40 41 42 43 44 45 46 47 48 49 50

000
ASUS43 KBIS 171610
RWRND

NORTH DAKOTA REGIONAL WEATHER ROUNDUP
NATIONAL WEATHER SERVICE BISMARCK ND
1000 AM CST SUN DEC 17 2017

NOTE: "FAIR" INDICATES FEW OR NO CLOUDS BELOW 12,000 FEET WITH NO
SIGNIFICANT WEATHER AND/OR OBSTRUCTIONS TO VISIBILITY.


NDZ001>003-009>011-017-171700-
NORTHWEST NORTH DAKOTA

CITY           SKY/WX    TMP DP  RH WIND       PRES   REMARKS
WILLISTON      CLEAR     20  18  92 S3        29.91F
MINOT          CLEAR     26  18  71 S10       29.92F WCI  16
MINOT AFB      CLEAR     25  19  75 SW9       29.90F WCI  16
$$

NDZ018>021-031>035-040>046-171700-
SOUTHWEST NORTH DAKOTA

CITY           SKY/WX    TMP DP  RH WIND       PRES   REMARKS
BISMARCK       SUNNY     23  20  88 CALM      30.02S
DICKINSON      SUNNY     23  19  85 S8        29.92F WCI  14
GARRISON         N/A     23  20  88 CALM      29.95F
HETTINGER ARPT CLOUDY    23  21  92 S5        29.98F WCI  17
$$

NDZ004>008-012>016-024-026-027-054-171700-
NORTHEAST NORTH DAKOTA

CITY           SKY/WX    TMP DP  RH WIND       PRES   REMARKS
GRAND FORKS    MOSUNNY   15  12  88 S6        30.00S WCI   6
GRND FRKS AFB  SUNNY     23  17  78 W12       29.99F WCI  12
DEVILS LAKE    SUNNY     20  16  84 SW8       29.98S WCI  10
$$

NDZ022-023-025-028>030-036>039-047>053-171700-
SOUTHEAST NORTH DAKOTA

CITY           SKY/WX    TMP DP  RH WIND       PRES   REMARKS
FARGO          CLOUDY    25  24  96 SW6       30.04F FOG     WCI  18
JAMESTOWN      CLOUDY    25  22  88 SW7       30.01F WCI  17
$$





USA.gov is the U.S. government's official web portal to all federal, state and local government web resources and services.